Delta Virtual Airport Information Service

Seoul Incheon International Airport

ICAO: RKSI Country: South Korea
Latitude: 37.4691 Longitude: 126.451
Latest Arrival : CAL160 (RCTP-RKSI) Latest Departure : DAC238 (RKSI-UEEE)


WX CaptureLIVE
Data provided by noaa.gov | Fetched at 03:25:47

METAR : RKSI 030900Z 32010KT CAVOK 02/M08 Q1021 NOSIG

TAF : RKSI 030500Z 0306/0412 33015G25KT CAVOK TNM01/0322Z TX07/0406Z BECMG 0310/0311 34010KT BECMG 0315/0316 06006KT BECMG 0320/0321 12006KT 9999 BKN040 BECMG 0401/0402 33010KT CAVOK


Runway Data for RKSI
Data provided by openaviationdata.com

Runway ID Mag Var Hdg Length Elevation Surface ILS Freq ILS Id ILS Slope
15L -8 152° 12308 ft 23 ft Asphalt 111.9 ISLL 3
15R -8 152° 12308 ft 23 ft Asphalt 109.1 ISRR 3
33L -8 332° 12308 ft 23 ft Asphalt 109.3 INLL 3
33R -8 332° 12308 ft 23 ft Asphalt 108.9 INRR 3

Seoul Incheon International Airport, South Korea
Use only for reference purposes



Not for navigational purposes.